K7SKM Weather Reports


Display with metric or nautical units.
time (UTC)temp
F
wind
direction
speed
MPH
gust
MPH
rain 1hr
in
rain 24hr
in
rain mn
in
humidity
%
barometer
mb
20260506044151 58 146 0.0 0.0 0.00 0.00 0.00 79 1020.3
20260506043649 58 149 0.0 0.0 0.00 0.00 0.00 79 1020.3
20260506043147 57 188 0.0 0.0 0.00 0.00 0.00 78 1020.4
20260506042646 58 185 0.0 0.0 0.00 0.00 0.00 78 1020.3
20260506042143 58 174 0.0 0.0 0.00 0.00 0.00 77 1020.2
20260506041641 59 174 0.0 0.0 0.00 0.00 0.00 77 1020.1
20260506041138 59 177 0.0 0.0 0.00 0.00 0.00 76 1020.2
20260506040635 59 177 0.0 0.0 0.00 0.00 0.00 76 1020.1
20260506040132 59 191 0.0 0.0 0.00 0.00 0.00 76 1020.3
20260506035629 59 191 0.0 0.0 0.00 0.00 0.00 75 1020.2
20260506035126 59 191 0.0 0.0 0.00 0.00 0.00 74 1020.1
20260506034623 60 182 0.0 0.0 0.00 0.00 0.00 74 1020.0
20260506034120 60 211 0.0 0.0 0.00 0.00 0.00 73 1020.0
20260506033617 60 206 0.0 0.0 0.00 0.00 0.00 73 1020.0
20260506033114 60 206 0.0 0.0 0.00 0.00 0.00 72 1019.9
20260506032612 60 203 0.0 0.0 0.00 0.00 0.00 71 1019.8
20260506032108 61 203 0.0 0.0 0.00 0.00 0.00 70 1019.9
20260506031605 61 207 0.0 0.0 0.00 0.00 0.00 70 1019.6
20260506031102 61 226 0.0 0.0 0.00 0.00 0.00 69 1019.6
20260506030601 62 226 0.0 0.0 0.00 0.00 0.00 69 1019.6
20260506030057 62 221 0.0 0.0 0.00 0.00 0.00 68 1019.7
20260506025554 63 219 0.0 0.0 0.00 0.00 0.00 68 1019.8
20260506025050 63 223 0.0 0.0 0.00 0.00 0.00 67 1019.6
20260506024548 63 213 0.0 0.0 0.00 0.00 0.00 67 1019.6
20260506024044 63 220 0.0 0.0 0.00 0.00 0.00 67 1019.7
20260506023540 63 207 0.0 0.0 0.00 0.00 0.00 67 1019.7
20260506023038 63 226 0.0 0.0 0.00 0.00 0.00 66 1019.5
20260506022535 63 179 0.0 0.0 0.00 0.00 0.00 66 1019.8
20260506022032 63 194 0.0 0.0 0.00 0.00 0.00 66 1019.3
20260506021530 64 208 0.0 0.0 0.00 0.00 0.00 65 1019.7
20260506021027 64 231 0.0 0.0 0.00 0.00 0.00 65 1019.7
20260506020525 64 239 0.0 0.0 0.00 0.00 0.00 66 1019.6
20260506020022 64 194 0.0 0.0 0.00 0.00 0.00 65 1019.7
20260506015519 64 265 0.0 0.0 0.00 0.00 0.00 65 1019.5
20260506015016 64 298 0.0 7.0 0.00 0.00 0.00 65 1019.5
20260506014514 64 297 0.0 0.0 0.00 0.00 0.00 64 1019.5
20260506014009 64 290 0.0 0.0 0.00 0.00 0.00 65 1019.5
20260506013507 64 274 0.0 0.0 0.00 0.00 0.00 64 1019.6
20260506013004 64 261 0.0 0.0 0.00 0.00 0.00 64 1019.4
20260506012500 65 283 0.0 0.0 0.00 0.00 0.00 64 1019.8
20260506011957 65 260 1.0 5.0 0.00 0.00 0.00 63 1019.7
20260506011454 65 218 0.0 3.0 0.00 0.00 0.00 63 1019.6
20260506010950 66 214 0.0 0.0 0.00 0.00 0.00 61 1019.6
20260506010450 66 315 4.0 7.0 0.00 0.00 0.00 61 1019.6
20260506005945 68 301 1.0 5.0 0.00 0.00 0.00 59 1019.7
20260506005444 68 249 0.0 0.0 0.00 0.00 0.00 58 1019.7
20260506004938 68 261 4.0 5.0 0.00 0.00 0.00 57 1019.8
20260506004437 68 232 0.0 0.0 0.00 0.00 0.00 59 1019.8
20260506003932 67 297 0.0 3.0 0.00 0.00 0.00 60 1019.7
20260506003429 67 220 0.0 0.0 0.00 0.00 0.00 61 1019.7
20260506002926 66 288 0.0 3.0 0.00 0.00 0.00 61 1019.6
20260506002422 66 308 5.0 7.0 0.00 0.00 0.00 60 1019.9
20260506001917 68 325 0.0 0.0 0.00 0.00 0.00 59 1019.9
20260506001415 66 295 0.0 5.0 0.00 0.00 0.00 60 1020.0
20260506000912 68 272 5.0 7.0 0.00 0.00 0.00 58 1019.7
20260506000409 66 278 3.0 12.0 0.00 0.00 0.00 61 1019.9
20260505235906 67 275 2.0 7.0 0.00 0.00 0.00 59 1020.1
20260505235404 67 265 0.0 7.0 0.00 0.00 0.00 60 1020.0
20260505234900 68 203 0.0 0.0 0.00 0.00 0.00 59 1020.1
20260505234358 68 214 0.0 0.0 0.00 0.00 0.00 60 1020.1
20260505233854 66 282 0.0 7.0 0.00 0.00 0.00 61 1020.1
20260505233353 67 294 5.0 10.0 0.00 0.00 0.00 59 1020.2
20260505232850 67 222 0.0 5.0 0.00 0.00 0.00 59 1020.1
20260505232348 68 177 0.0 0.0 0.00 0.00 0.00 57 1020.4
20260505231844 67 273 0.0 0.0 0.00 0.00 0.00 59 1020.3
20260505231341 67 282 0.0 3.0 0.00 0.00 0.00 60 1020.4
20260505230839 65 147 0.0 5.0 0.00 0.00 0.00 61 1020.4
20260505230336 67 229 0.0 0.0 0.00 0.00 0.00 60 1020.3
20260505225833 65 286 9.0 12.0 0.00 0.00 0.00 61 1020.4
20260505225330 66 256 0.0 0.0 0.00 0.00 0.00 61 1020.5
20260505224825 65 273 5.0 10.0 0.00 0.00 0.00 62 1020.6
20260505224323 66 155 0.0 5.0 0.00 0.00 0.00 63 1020.7
20260505223820 66 292 0.0 3.0 0.00 0.00 0.00 60 1020.5
20260505223317 67 205 0.0 0.0 0.00 0.00 0.00 60 1020.7
20260505222813 66 229 0.0 0.0 0.00 0.00 0.00 61 1020.8
20260505222309 66 102 0.0 0.0 0.00 0.00 0.00 61 1020.6
20260505221807 65 265 0.0 0.0 0.00 0.00 0.00 62 1020.8
20260505221303 64 201 0.0 0.0 0.00 0.00 0.00 63 1020.9
20260505220800 64 68 0.0 0.0 0.00 0.00 0.00 63 1020.8
20260505220257 63 157 0.0 0.0 0.00 0.00 0.00 64 1021.1
20260505215755 65 217 0.0 0.0 0.00 0.00 0.00 62 1021.0
20260505215253 64 219 0.0 0.0 0.00 0.00 0.00 64 1021.0
20260505214750 64 275 0.0 0.0 0.00 0.00 0.00 64 1020.9
20260505214248 64 205 0.0 0.0 0.00 0.00 0.00 63 1021.0
20260505213745 63 153 0.0 0.0 0.00 0.00 0.00 64 1020.9
20260505213242 64 218 0.0 0.0 0.00 0.00 0.00 64 1021.1
20260505212738 63 263 0.0 5.0 0.00 0.00 0.00 64 1021.0
20260505212236 63 86 0.0 0.0 0.00 0.00 0.00 63 1020.9
20260505211732 64 230 0.0 0.0 0.00 0.00 0.00 62 1021.1
20260505211230 63 161 0.0 0.0 0.00 0.00 0.00 62 1021.0
20260505210726 62 157 0.0 0.0 0.00 0.00 0.00 64 1020.9
20260505210223 63 162 0.0 0.0 0.00 0.00 0.00 62 1021.1
20260505205720 63 228 0.0 0.0 0.00 0.00 0.00 63 1021.3
20260505205218 62 153 0.0 0.0 0.00 0.00 0.00 65 1021.2
20260505204714 62 194 0.0 0.0 0.00 0.00 0.00 66 1021.2
20260505204213 62 138 0.0 0.0 0.00 0.00 0.00 64 1021.3
20260505203710 62 149 0.0 0.0 0.00 0.00 0.00 64 1021.3
20260505203206 62 205 0.0 0.0 0.00 0.00 0.00 65 1021.4
20260505202702 62 166 0.0 3.0 0.00 0.00 0.00 65 1021.3
20260505202158 62 217 0.0 0.0 0.00 0.00 0.00 65 1021.3
20260505201655 62 230 0.0 0.0 0.00 0.00 0.00 67 1021.1
20260505201153 62 182 0.0 0.0 0.00 0.00 0.00 66 1021.2
20260505200651 61 272 0.0 0.0 0.00 0.00 0.00 66 1021.1
20260505200147 61 204 0.0 0.0 0.00 0.00 0.00 66 1021.3
20260505195643 61 225 0.0 3.0 0.00 0.00 0.00 67 1021.3
20260505195141 61 149 1.0 5.0 0.00 0.00 0.00 66 1021.1
20260505194638 61 202 0.0 0.0 0.00 0.00 0.00 67 1021.2
20260505194134 61 155 0.0 3.0 0.00 0.00 0.00 66 1021.2
20260505193631 61 208 0.0 0.0 0.00 0.00 0.00 66 1021.3
20260505193128 61 205 0.0 3.0 0.00 0.00 0.00 67 1021.1
20260505192626 60 150 2.0 7.0 0.00 0.00 0.00 68 1021.1
20260505192123 60 148 2.0 5.0 0.00 0.00 0.00 68 1021.3
20260505191622 60 128 0.0 3.0 0.00 0.00 0.00 69 1021.5
20260505191119 60 171 0.0 5.0 0.00 0.00 0.00 69 1021.3
20260505190615 60 167 3.0 5.0 0.00 0.00 0.00 67 1021.3
20260505190110 60 172 0.0 0.0 0.00 0.00 0.00 69 1021.3
20260505185607 60 210 0.0 0.0 0.00 0.00 0.00 68 1021.1
20260505185103 60 182 0.0 0.0 0.00 0.00 0.00 69 1021.3
20260505184600 60 240 0.0 0.0 0.00 0.00 0.00 69 1021.2
20260505184057 60 220 0.0 0.0 0.00 0.00 0.00 70 1021.1
20260505183553 59 164 0.0 5.0 0.00 0.00 0.00 70 1021.3
20260505183051 60 211 0.0 0.0 0.00 0.00 0.00 69 1021.2
20260505182541 60 154 0.0 0.0 0.00 0.00 0.00 69 1021.2
20260505182038 59 248 0.0 0.0 0.00 0.00 0.00 69 1021.1
20260505181535 59 125 0.0 0.0 0.00 0.00 0.00 70 1021.1
20260505181032 59 217 0.0 0.0 0.00 0.00 0.00 70 1021.2
20260505180528 59 213 0.0 0.0 0.00 0.00 0.00 70 1021.1
20260505180026 59 188 0.0 3.0 0.00 0.00 0.00 70 1021.1
20260505175521 59 229 0.0 0.0 0.00 0.00 0.00 71 1021.1
20260505175018 59 226 0.0 0.0 0.00 0.00 0.00 71 1021.1
20260505174515 59 235 0.0 0.0 0.00 0.00 0.00 70 1021.2
20260505174011 59 186 0.0 0.0 0.00 0.00 0.00 71 1021.0
20260505173508 59 176 0.0 0.0 0.00 0.00 0.00 71 1021.0
20260505173004 59 202 0.0 0.0 0.00 0.00 0.00 71 1021.0
20260505172502 58 175 0.0 0.0 0.00 0.00 0.00 71 1021.0
20260505171957 58 195 0.0 0.0 0.00 0.00 0.00 72 1020.9
20260505171453 58 268 0.0 0.0 0.00 0.00 0.00 71 1020.9
20260505170950 58 217 0.0 0.0 0.00 0.00 0.00 71 1020.9
20260505170447 58 215 0.0 0.0 0.00 0.00 0.00 71 1020.9
20260505165942 58 284 0.0 0.0 0.00 0.00 0.00 71 1020.9
20260505165438 58 231 0.0 0.0 0.00 0.00 0.00 71 1020.9
20260505164934 58 214 0.0 0.0 0.00 0.00 0.00 72 1020.7
20260505164431 58 192 0.0 0.0 0.00 0.00 0.00 73 1020.8
20260505163929 57 195 0.0 0.0 0.00 0.00 0.00 73 1020.6
20260505163427 57 222 0.0 0.0 0.00 0.00 0.00 72 1021.0
20260505162926 58 210 0.0 0.0 0.00 0.00 0.00 72 1020.7
20260505162421 58 229 0.0 0.0 0.00 0.00 0.00 72 1020.6
20260505161919 58 203 0.0 0.0 0.00 0.00 0.00 72 1020.6
20260505161415 57 174 0.0 0.0 0.00 0.00 0.00 73 1020.7
20260505160913 57 190 0.0 0.0 0.00 0.00 0.00 73 1020.4
20260505160411 57 116 0.0 0.0 0.00 0.00 0.00 73 1020.7
20260505153349 57 210 0.0 0.0 0.00 0.00 0.00 73 1020.6
20260505152847 57 239 0.0 0.0 0.00 0.00 0.00 73 1020.7
20260505152344 57 179 0.0 0.0 0.00 0.00 0.00 73 1020.4
20260505151843 57 199 0.0 5.0 0.00 0.00 0.00 74 1020.4
20260505151340 57 204 0.0 0.0 0.00 0.00 0.00 74 1020.4
20260505150837 57 200 0.0 0.0 0.00 0.00 0.00 75 1020.4
20260505150334 57 188 0.0 0.0 0.00 0.00 0.00 75 1020.3
20260505140259 56 188 0.0 0.0 0.00 0.00 0.00 75 1019.9
20260505130223 56 156 0.0 3.0 0.00 0.00 0.00 76 1019.2
20260505124713 56 162 0.0 0.0 0.00 0.00 0.00 76 1019.1
20260505124210 56 152 0.0 0.0 0.00 0.00 0.00 76 1019.1
20260505123705 56 157 0.0 0.0 0.00 0.00 0.00 76 1019.1
20260505123203 56 233 0.0 0.0 0.00 0.00 0.00 76 1019.1
20260505122659 56 160 0.0 3.0 0.00 0.00 0.00 76 1019.0
20260505122156 56 208 0.0 0.0 0.00 0.00 0.00 76 1018.9
20260505121653 56 206 0.0 5.0 0.00 0.00 0.00 76 1019.1
20260505121149 56 194 0.0 5.0 0.00 0.00 0.00 76 1019.0
20260505120645 56 189 0.0 0.0 0.00 0.00 0.00 76 1018.8
20260505120142 56 208 0.0 0.0 0.00 0.00 0.00 76 1019.0
20260505115635 56 194 0.0 0.0 0.00 0.00 0.00 76 1018.7
20260505115134 56 202 0.0 3.0 0.00 0.00 0.00 77 1018.6
20260505114630 56 266 0.0 0.0 0.00 0.00 0.00 77 1018.8
20260505114127 56 127 0.0 3.0 0.00 0.00 0.00 77 1018.8
20260505113623 56 199 0.0 0.0 0.00 0.00 0.00 77 1018.7
20260505113120 56 190 0.0 0.0 0.00 0.00 0.00 77 1018.8
20260505112616 56 160 2.0 5.0 0.00 0.00 0.00 77 1018.7
20260505112114 56 140 0.0 3.0 0.00 0.00 0.00 77 1018.7
20260505111608 56 148 0.0 0.0 0.00 0.00 0.00 77 1018.6
20260505111104 56 193 0.0 0.0 0.00 0.00 0.00 77 1018.6
20260505110601 56 138 0.0 0.0 0.00 0.00 0.00 77 1018.7
20260505102033 56 208 0.0 0.0 0.00 0.00 0.00 77 1018.6
20260505101532 56 197 0.0 3.0 0.00 0.00 0.00 77 1018.4
20260505101028 56 156 0.0 5.0 0.00 0.00 0.00 77 1018.4
20260505100525 56 149 0.0 3.0 0.00 0.00 0.00 78 1018.3
20260505100022 56 214 0.0 0.0 0.00 0.00 0.00 77 1018.1
20260505095517 56 135 2.0 5.0 0.00 0.00 0.00 77 1018.2
20260505095014 55 198 0.0 0.0 0.00 0.00 0.00 78 1018.1
20260505094511 55 204 0.0 0.0 0.00 0.00 0.00 78 1018.2
20260505094007 55 206 0.0 0.0 0.00 0.00 0.00 79 1018.1
20260505093503 55 194 0.0 0.0 0.00 0.00 0.00 79 1018.3
20260505093001 55 144 0.0 0.0 0.00 0.00 0.00 79 1018.0
20260505092458 55 143 0.0 0.0 0.00 0.00 0.00 79 1018.1
20260505091956 55 215 0.0 0.0 0.00 0.00 0.00 79 1018.1
20260505091453 55 213 0.0 0.0 0.00 0.00 0.00 79 1018.2
20260505090951 55 224 0.0 0.0 0.00 0.00 0.00 79 1017.9
20260505090449 55 145 0.0 0.0 0.00 0.00 0.00 80 1017.9
20260505085946 55 194 0.0 0.0 0.00 0.00 0.00 79 1018.0
20260505085444 55 208 0.0 0.0 0.00 0.00 0.00 80 1017.7
20260505084942 55 184 0.0 0.0 0.00 0.00 0.00 79 1017.8
20260505084440 55 198 0.0 0.0 0.00 0.00 0.00 79 1017.9
20260505083937 55 210 0.0 0.0 0.00 0.00 0.00 79 1017.8
20260505083435 55 209 0.0 0.0 0.00 0.00 0.00 79 1018.0
20260505082931 55 189 0.0 0.0 0.00 0.00 0.00 79 1017.8
20260505082427 55 201 0.0 0.0 0.00 0.00 0.00 79 1017.8
20260505081924 55 205 0.0 0.0 0.00 0.00 0.00 79 1017.9
20260505081421 55 200 0.0 0.0 0.00 0.00 0.00 79 1017.8
20260505080917 55 131 0.0 0.0 0.00 0.00 0.00 79 1017.6
20260505080413 55 195 0.0 0.0 0.00 0.00 0.00 79 1017.8
20260505075909 55 167 0.0 0.0 0.00 0.00 0.00 78 1017.8
20260505075406 55 169 0.0 0.0 0.00 0.00 0.00 79 1017.8
20260505074903 55 202 0.0 0.0 0.00 0.00 0.00 78 1017.6
20260505074400 55 196 0.0 0.0 0.00 0.00 0.00 78 1017.6
20260505073857 55 209 0.0 0.0 0.00 0.00 0.00 78 1017.5
20260505073355 56 210 0.0 0.0 0.00 0.00 0.00 77 1017.4
20260505072852 56 150 0.0 0.0 0.00 0.00 0.00 77 1017.5
20260505072348 56 163 0.0 0.0 0.00 0.00 0.00 77 1017.3
20260505071845 56 141 0.0 0.0 0.00 0.00 0.00 77 1017.3
20260505071341 56 207 0.0 0.0 0.00 0.00 0.00 77 1017.4
20260505070839 56 193 0.0 0.0 0.00 0.00 0.00 76 1017.2
20260505070335 57 237 0.0 5.0 0.00 0.00 0.00 76 1017.2
20260505065831 57 223 0.0 0.0 0.00 0.00 0.00 76 1017.1
20260505065327 57 224 0.0 0.0 0.00 0.00 0.00 76 1017.0
20260505064825 57 221 0.0 5.0 0.00 0.00 0.00 76 1017.0
20260505064321 57 182 0.0 0.0 0.00 0.00 0.00 76 1017.0
20260505063820 57 212 0.0 0.0 0.00 0.00 0.00 76 1016.9
20260505063315 57 223 0.0 0.0 0.00 0.00 0.00 76 1017.0
20260505062812 57 193 0.0 0.0 0.00 0.00 0.00 75 1016.9
20260505062310 57 229 0.0 0.0 0.00 0.00 0.00 74 1016.8
20260505061806 57 232 0.0 0.0 0.00 0.00 0.00 75 1016.9
20260505061305 57 228 0.0 0.0 0.00 0.00 0.00 74 1016.8
20260505060802 58 191 0.0 0.0 0.00 0.00 0.00 74 1016.7
20260505060259 58 219 0.0 3.0 0.00 0.00 0.00 74 1016.7
20260505055754 58 198 0.0 0.0 0.00 0.00 0.00 73 1016.4
20260505055250 58 157 0.0 0.0 0.00 0.00 0.00 73 1016.4
20260505054748 58 197 0.0 0.0 0.00 0.00 0.00 73 1016.2
20260505054245 58 196 0.0 0.0 0.00 0.00 0.00 72 1016.4
20260505053744 59 132 0.0 0.0 0.00 0.00 0.00 72 1016.2
20260505053240 59 205 0.0 0.0 0.00 0.00 0.00 72 1016.4
20260505052737 59 185 0.0 0.0 0.00 0.00 0.00 71 1016.2
20260505052234 60 188 0.0 0.0 0.00 0.00 0.00 70 1016.3
20260505051731 60 148 0.0 0.0 0.00 0.00 0.00 70 1016.1
20260505051229 60 195 0.0 0.0 0.00 0.00 0.00 69 1016.2
20260505050727 60 212 0.0 0.0 0.00 0.00 0.00 69 1016.0
20260505050225 61 210 0.0 0.0 0.00 0.00 0.00 69 1016.0